Terminal Aerodrome Forecast
Issued by NWS Melbourne, FL

Home | Current Version | Previous Version | Text Only | Print | Product List | Glossary On
Versions: 1 2 3 4 5 6 7 8 9 10 11 12 13 14 15 16 17 18 19 20 21 22 23 24 25
000
FTUS42 KMLB 311100
TAFMCO
TAF
KMCO 311128Z 3112/0112 11004KT P6SM SCT070 BKN250
     FM311400 15003KT P6SM SCT025
     FM312000 12007KT P6SM VCTS SCT050CB BKN250
     FM010200 15003KT P6SM FEW060 SCT090 BKN250=

USA.gov is the U.S. government's official web portal to all federal, state and local government web resources and services.